When you browse on this site, cookies collect data to enhance your experience and personalize the content and advertising you see.
Visit our Privacy Policy to learn more. By continuing to use the site, you agree to this use of cookies and data.
  • In Portugal
  • List of Countries
  • For 7 days
  • Water Temperature
  • Weather Map
  • Weather Widgets
  • user-avatar
    Login

    Hourly Weather Kina

    Today, 21 August, Wednesday

    Time Temperature Precipitation Wind Pressure Humidity
    00:00 +16°C° 0 mm 1 mps 624 mmHg 62%
    01:00 +16°C° 0 mm 1 mps 624 mmHg 63%
    02:00 +16°C° 0 mm 1 mps 624 mmHg 64%
    03:00 +15°C° 0 mm 1 mps 624 mmHg 64%
    04:00 +16°C° 0 mm 1 mps 624 mmHg 62%
    05:00 +16°C° 0 mm 1 mps 624 mmHg 61%
    06:00 +18°C° 0 mm 1 mps 624 mmHg 59%
    07:00 +20°C° 0 mm 1 mps 625 mmHg 52%
    08:00 +23°C° 0 mm 1 mps 626 mmHg 44%
    09:00 +25°C° 0 mm 1 mps 627 mmHg 37%
    10:00 +26°C° 0 mm 2 mps 627 mmHg 37%
    11:00 +27°C° 0 mm 2 mps 627 mmHg 37%
    12:00 +27°C° 0 mm 2 mps 627 mmHg 37%
    13:00 +27°C° 0 mm 2 mps 626 mmHg 38%
    14:00 +27°C° 0 mm 2 mps 626 mmHg 40%
    15:00 +27°C° 0 mm 3 mps 626 mmHg 42%
    16:00 +25°C° 0 mm 2 mps 625 mmHg 46%
    17:00 +24°C° 0 mm 2 mps 624 mmHg 50%
    18:00 +23°C° 0 mm 1 mps 623 mmHg 55%
    19:00 +21°C° 0 mm 1 mps 623 mmHg 57%
    20:00 +20°C° 0 mm 1 mps 622 mmHg 59%
    21:00 +18°C° 0 mm 1 mps 622 mmHg 61%
    22:00 +18°C° 0 mm 1 mps 622 mmHg 62%
    23:00 +16°C° 0 mm 1 mps 622 mmHg 63%

    Tomorrow, 22 August, Thursday

    Time Temperature Precipitation Wind Pressure Humidity
    00:00 +16°C° 0 mm 1 mps 622 mmHg 64%
    01:00 +16°C° 0 mm 1 mps 621 mmHg 64%
    02:00 +16°C° 0 mm 1 mps 621 mmHg 65%
    03:00 +16°C° 0 mm 1 mps 621 mmHg 65%
    04:00 +16°C° 0 mm 1 mps 621 mmHg 64%
    05:00 +18°C° 0 mm 1 mps 622 mmHg 63%
    06:00 +18°C° 0 mm 1 mps 622 mmHg 62%
    07:00 +20°C° 0 mm 1 mps 623 mmHg 54%
    08:00 +23°C° 0 mm 1 mps 624 mmHg 46%
    09:00 +25°C° 0 mm 1 mps 624 mmHg 39%
    10:00 +26°C° 0 mm 2 mps 624 mmHg 38%
    11:00 +27°C° 0 mm 2 mps 624 mmHg 38%
    12:00 +27°C° 0 mm 3 mps 624 mmHg 37%
    13:00 +27°C° 0 mm 3 mps 624 mmHg 37%
    14:00 +27°C° 0 mm 3 mps 624 mmHg 37%
    15:00 +27°C° 0 mm 3 mps 623 mmHg 37%
    16:00 +25°C° 0 mm 2 mps 623 mmHg 42%
    17:00 +24°C° 0 mm 1 mps 622 mmHg 47%
    18:00 +23°C° 0 mm 1 mps 622 mmHg 52%
    19:00 +21°C° 0 mm 1 mps 622 mmHg 54%
    20:00 +20°C° 0 mm 1 mps 622 mmHg 56%
    21:00 +18°C° 0 mm 1 mps 621 mmHg 58%
    22:00 +18°C° 0 mm 1 mps 621 mmHg 59%
    23:00 +16°C° 0 mm 1 mps 621 mmHg 59%

    Day after tomorrow, 23 August, Friday

    Time Temperature Precipitation Wind Pressure Humidity
    00:00 +16°C° 0 mm 1 mps 621 mmHg 59%
    01:00 +16°C° 0 mm 1 mps 621 mmHg 59%
    02:00 +16°C° 0 mm 1 mps 621 mmHg 59%
    03:00 +15°C° 0 mm 1 mps 621 mmHg 59%
    04:00 +16°C° 0 mm 1 mps 621 mmHg 59%
    05:00 +16°C° 0 mm 1 mps 622 mmHg 58%
    06:00 +18°C° 0 mm 1 mps 622 mmHg 58%
    07:00 +20°C° 0 mm 1 mps 623 mmHg 50%
    08:00 +22°C° 0 mm 1 mps 624 mmHg 42%
    09:00 +25°C° 0 mm 2 mps 625 mmHg 35%
    10:00 +25°C° 0 mm 2 mps 625 mmHg 34%
    11:00 +26°C° 0 mm 3 mps 625 mmHg 33%
    12:00 +27°C° 0 mm 3 mps 625 mmHg 33%
    13:00 +27°C° 0 mm 3 mps 625 mmHg 34%
    14:00 +27°C° 0 mm 3 mps 624 mmHg 34%
    15:00 +27°C° 0 mm 3 mps 624 mmHg 35%
    16:00 +25°C° 0 mm 2 mps 624 mmHg 41%
    17:00 +24°C° 0 mm 2 mps 623 mmHg 47%
    18:00 +23°C° 0 mm 1 mps 623 mmHg 53%
    19:00 +21°C° 0 mm 1 mps 622 mmHg 55%
    20:00 +19°C° 0 mm 1 mps 622 mmHg 57%
    21:00 +18°C° 0 mm 1 mps 622 mmHg 59%
    22:00 +18°C° 0 mm 1 mps 622 mmHg 59%
    23:00 +16°C° 0 mm 1 mps 622 mmHg 59%

    24 August, Saturday

    Time Temperature Precipitation Wind Pressure Humidity
    00:00 +16°C° 0 mm 1 mps 622 mmHg 60%
    01:00 +16°C° 0 mm 1 mps 621 mmHg 60%
    02:00 +16°C° 0 mm 1 mps 621 mmHg 60%
    03:00 +16°C° 0 mm 1 mps 621 mmHg 60%
    04:00 +16°C° 0 mm 1 mps 621 mmHg 58%
    05:00 +16°C° 0 mm 1 mps 622 mmHg 56%
    06:00 +18°C° 0 mm 1 mps 622 mmHg 55%
    07:00 +20°C° 0 mm 1 mps 623 mmHg 47%
    08:00 +23°C° 0 mm 1 mps 624 mmHg 39%
    09:00 +25°C° 0 mm 2 mps 625 mmHg 32%
    10:00 +25°C° 0 mm 2 mps 625 mmHg 32%
    11:00 +26°C° 0 mm 3 mps 625 mmHg 33%
    12:00 +27°C° 0 mm 4 mps 625 mmHg 33%
    13:00 +26°C° 0.1 mm 3 mps 625 mmHg 34%
    14:00 +26°C° 0.1 mm 3 mps 625 mmHg 36%
    15:00 +26°C° 0.1 mm 2 mps 624 mmHg 37%
    16:00 +24°C° 0.1 mm 2 mps 624 mmHg 43%
    17:00 +23°C° 0.1 mm 1 mps 624 mmHg 50%
    18:00 +22°C° 0.1 mm 1 mps 623 mmHg 56%
    19:00 +20°C° 0 mm 1 mps 623 mmHg 58%
    20:00 +19°C° 0 mm 1 mps 623 mmHg 60%
    21:00 +16°C° 0 mm 1 mps 623 mmHg 62%
    22:00 +16°C° 0 mm 1 mps 623 mmHg 62%
    23:00 +16°C° 0 mm 1 mps 623 mmHg 62%

    25 August, Sunday

    Time Temperature Precipitation Wind Pressure Humidity
    00:00 +16°C° 0 mm 1 mps 623 mmHg 62%
    01:00 +16°C° 0.1 mm 1 mps 623 mmHg 64%
    02:00 +16°C° 0.1 mm 1 mps 623 mmHg 66%
    03:00 +16°C° 0.1 mm 2 mps 623 mmHg 68%
    04:00 +16°C° 0.1 mm 1 mps 623 mmHg 69%
    05:00 +16°C° 0.1 mm 1 mps 623 mmHg 71%
    06:00 +16°C° 0.1 mm 1 mps 623 mmHg 72%
    07:00 +19°C° 0 mm 1 mps 624 mmHg 66%
    08:00 +19°C° 0 mm 2 mps 624 mmHg 59%
    09:00 +21°C° 0 mm 2 mps 625 mmHg 52%
    10:00 +23°C° 0.3 mm 2 mps 625 mmHg 50%
    11:00 +23°C° 0.3 mm 2 mps 625 mmHg 48%
    12:00 +24°C° 0.3 mm 3 mps 625 mmHg 45%
    13:00 +24°C° 0.2 mm 3 mps 625 mmHg 44%
    14:00 +24°C° 0.2 mm 3 mps 625 mmHg 43%
    15:00 +24°C° 0.2 mm 3 mps 625 mmHg 41%
    16:00 +23°C° 0 mm 2 mps 624 mmHg 45%
    17:00 +21°C° 0 mm 2 mps 624 mmHg 49%
    18:00 +21°C° 0 mm 1 mps 623 mmHg 52%
    19:00 +19°C° 0 mm 1 mps 623 mmHg 53%
    20:00 +18°C° 0 mm 1 mps 622 mmHg 53%
    21:00 +15°C° 0 mm 1 mps 622 mmHg 54%
    22:00 +15°C° 0 mm 1 mps 622 mmHg 53%
    23:00 +15°C° 0 mm 1 mps 622 mmHg 53%

    26 August, Monday

    Time Temperature Precipitation Wind Pressure Humidity
    00:00 +14°C° 0 mm 1 mps 622 mmHg 52%
    01:00 +14°C° 0 mm 1 mps 622 mmHg 51%
    02:00 +14°C° 0 mm 1 mps 622 mmHg 51%
    03:00 +14°C° 0 mm 1 mps 622 mmHg 50%
    04:00 +15°C° 0 mm 1 mps 622 mmHg 52%
    05:00 +15°C° 0 mm 1 mps 622 mmHg 54%
    06:00 +15°C° 0 mm 1 mps 622 mmHg 56%
    07:00 +18°C° 0 mm 1 mps 623 mmHg 51%
    08:00 +21°C° 0 mm 1 mps 624 mmHg 46%
    09:00 +23°C° 0 mm 1 mps 625 mmHg 41%
    10:00 +23°C° 0 mm 2 mps 625 mmHg 41%
    11:00 +24°C° 0 mm 2 mps 625 mmHg 41%
    12:00 +25°C° 0 mm 2 mps 626 mmHg 41%
    13:00 +25°C° 0.3 mm 2 mps 625 mmHg 43%
    14:00 +24°C° 0.3 mm 2 mps 625 mmHg 46%
    15:00 +23°C° 0.3 mm 2 mps 625 mmHg 48%
    16:00 +22°C° 0.2 mm 1 mps 624 mmHg 53%
    17:00 +21°C° 0.2 mm 1 mps 624 mmHg 59%
    18:00 +20°C° 0.2 mm 1 mps 624 mmHg 64%
    19:00 +19°C° 0.1 mm 1 mps 624 mmHg 67%
    20:00 +16°C° 0.1 mm 1 mps 624 mmHg 70%
    21:00 +15°C° 0.1 mm 1 mps 624 mmHg 73%
    22:00 +15°C° 0 mm 1 mps 624 mmHg 73%
    23:00 +15°C° 0 mm 1 mps 624 mmHg 73%
    Show more